Location: Auckland
(36.8670°S, 174.7670°E)
Time: 19:37:39
(UTC+12:00)

Tiros 1 despin weight - Pass Details

Date: 22 July 2019
Orbit: 594 x 642 km, 48.2° (Epoch: 24 August)

Event Time Altitude Azimuth Distance (km) Brightness Sun altitude
Rises 03:57:15 0° 235° (SW) 2,866 - -41.8°
Reaches altitude 10° 03:59:58 10° 220° (SW) 1,968 - -41.2°
Maximum altitude 04:03:32 22° 168° (SSE) 1,342 - -40.5°
Drops below altitude 10° 04:07:08 10° 116° (ESE) 1,984 - -39.8°
Exits shadow 04:07:15 10° 115° (ESE) 2,019 ? -39.8°
Sets 04:09:53 0° 100° (E) 2,896 ? -39.3°
